﻿測定場所 (Monitoring sites),日付 (Measurement date),時間 (Measurement time),線量率 最大値 (max) μGy/h,線量率 最小値 (min) μGy/h,線量率 平均値 (average) μGy/h,
江戸川 (Edogawa),2012-07-15,23:01～24:00,0.122,0.110,0.117,
江戸川 (Edogawa),2012-07-15,22:01～23:00,0.121,0.110,0.116,
江戸川 (Edogawa),2012-07-15,21:01～22:00,0.121,0.108,0.116,
江戸川 (Edogawa),2012-07-15,20:01～21:00,0.125,0.110,0.116,
江戸川 (Edogawa),2012-07-15,19:01～20:00,0.124,0.110,0.117,
江戸川 (Edogawa),2012-07-15,18:01～19:00,0.122,0.110,0.116,
江戸川 (Edogawa),2012-07-15,17:01～18:00,0.123,0.108,0.116,
江戸川 (Edogawa),2012-07-15,16:01～17:00,0.122,0.108,0.116,
江戸川 (Edogawa),2012-07-15,15:01～16:00,0.122,0.112,0.117,
江戸川 (Edogawa),2012-07-15,14:01～15:00,0.122,0.109,0.116,
江戸川 (Edogawa),2012-07-15,13:01～14:00,0.124,0.109,0.116,
江戸川 (Edogawa),2012-07-15,12:01～13:00,0.123,0.106,0.117,
江戸川 (Edogawa),2012-07-15,11:01～12:00,0.122,0.108,0.116,
江戸川 (Edogawa),2012-07-15,10:01～11:00,0.124,0.110,0.116,
江戸川 (Edogawa),2012-07-15,09:01～10:00,0.122,0.108,0.115,
江戸川 (Edogawa),2012-07-15,08:01～09:00,0.122,0.108,0.115,
江戸川 (Edogawa),2012-07-15,07:01～08:00,0.122,0.111,0.116,
江戸川 (Edogawa),2012-07-15,06:01～07:00,0.124,0.110,0.116,
江戸川 (Edogawa),2012-07-15,05:01～06:00,0.121,0.108,0.116,
江戸川 (Edogawa),2012-07-15,04:01～05:00,0.122,0.109,0.116,
江戸川 (Edogawa),2012-07-15,03:01～04:00,0.121,0.109,0.116,
江戸川 (Edogawa),2012-07-15,02:01～03:00,0.122,0.110,0.116,
江戸川 (Edogawa),2012-07-15,01:01～02:00,0.122,0.109,0.116,
江戸川 (Edogawa),2012-07-15,00:01～01:00,0.125,0.110,0.116,
江戸川 (Edogawa),2012-07-14,23:01～24:00,0.121,0.110,0.116,
江戸川 (Edogawa),2012-07-14,22:01～23:00,0.122,0.109,0.116,
江戸川 (Edogawa),2012-07-14,21:01～22:00,0.123,0.106,0.116,
江戸川 (Edogawa),2012-07-14,20:01～21:00,0.122,0.110,0.115,
江戸川 (Edogawa),2012-07-14,19:01～20:00,0.122,0.107,0.115,
江戸川 (Edogawa),2012-07-14,18:01～19:00,0.122,0.108,0.115,
江戸川 (Edogawa),2012-07-14,17:01～18:00,0.123,0.110,0.115,
江戸川 (Edogawa),2012-07-14,16:01～17:00,0.123,0.109,0.116,
江戸川 (Edogawa),2012-07-14,15:01～16:00,0.121,0.109,0.115,
江戸川 (Edogawa),2012-07-14,14:01～15:00,0.120,0.107,0.115,
江戸川 (Edogawa),2012-07-14,13:01～14:00,0.121,0.109,0.115,
江戸川 (Edogawa),2012-07-14,12:01～13:00,0.123,0.108,0.114,
江戸川 (Edogawa),2012-07-14,11:01～12:00,0.121,0.109,0.115,
江戸川 (Edogawa),2012-07-14,10:01～11:00,0.120,0.106,0.114,
江戸川 (Edogawa),2012-07-14,09:01～10:00,0.122,0.108,0.114,
江戸川 (Edogawa),2012-07-14,08:01～09:00,0.122,0.108,0.115,
江戸川 (Edogawa),2012-07-14,07:01～08:00,0.121,0.110,0.115,
江戸川 (Edogawa),2012-07-14,06:01～07:00,0.127,0.111,0.119,
江戸川 (Edogawa),2012-07-14,05:01～06:00,0.136,0.117,0.127,
江戸川 (Edogawa),2012-07-14,04:01～05:00,0.137,0.119,0.129,
江戸川 (Edogawa),2012-07-14,03:01～04:00,0.136,0.122,0.129,
江戸川 (Edogawa),2012-07-14,02:01～03:00,0.133,0.114,0.123,
江戸川 (Edogawa),2012-07-14,01:01～02:00,0.130,0.112,0.120,
江戸川 (Edogawa),2012-07-14,00:01～01:00,0.120,0.112,0.116,
江戸川 (Edogawa),2012-07-13,23:01～24:00,0.122,0.109,0.116,
江戸川 (Edogawa),2012-07-13,22:01～23:00,0.124,0.108,0.116,
江戸川 (Edogawa),2012-07-13,21:01～22:00,0.123,0.109,0.116,
江戸川 (Edogawa),2012-07-13,20:01～21:00,0.123,0.111,0.117,
江戸川 (Edogawa),2012-07-13,19:01～20:00,0.122,0.109,0.117,
江戸川 (Edogawa),2012-07-13,18:01～19:00,0.123,0.112,0.116,
江戸川 (Edogawa),2012-07-13,17:01～18:00,0.124,0.111,0.117,
江戸川 (Edogawa),2012-07-13,16:01～17:00,0.122,0.108,0.117,
江戸川 (Edogawa),2012-07-13,15:01～16:00,0.122,0.109,0.116,
江戸川 (Edogawa),2012-07-13,14:01～15:00,0.121,0.109,0.116,
江戸川 (Edogawa),2012-07-13,13:01～14:00,0.123,0.108,0.116,
江戸川 (Edogawa),2012-07-13,12:01～13:00,0.123,0.108,0.116,
江戸川 (Edogawa),2012-07-13,11:01～12:00,0.123,0.109,0.116,
江戸川 (Edogawa),2012-07-13,10:01～11:00,0.124,0.108,0.115,
江戸川 (Edogawa),2012-07-13,09:01～10:00,0.121,0.109,0.116,
江戸川 (Edogawa),2012-07-13,08:01～09:00,0.124,0.108,0.115,
江戸川 (Edogawa),2012-07-13,07:01～08:00,0.121,0.107,0.115,
江戸川 (Edogawa),2012-07-13,06:01～07:00,0.122,0.108,0.115,
江戸川 (Edogawa),2012-07-13,05:01～06:00,0.121,0.111,0.116,
江戸川 (Edogawa),2012-07-13,04:01～05:00,0.127,0.112,0.120,
江戸川 (Edogawa),2012-07-13,03:01～04:00,0.137,0.122,0.128,
江戸川 (Edogawa),2012-07-13,02:01～03:00,0.134,0.117,0.125,
江戸川 (Edogawa),2012-07-13,01:01～02:00,0.125,0.113,0.119,
江戸川 (Edogawa),2012-07-13,00:01～01:00,0.128,0.114,0.120,
江戸川 (Edogawa),2012-07-12,23:01～24:00,0.126,0.110,0.121,
江戸川 (Edogawa),2012-07-12,22:01～23:00,0.127,0.114,0.119,
江戸川 (Edogawa),2012-07-12,21:01～22:00,0.128,0.112,0.118,
江戸川 (Edogawa),2012-07-12,20:01～21:00,0.127,0.111,0.118,
江戸川 (Edogawa),2012-07-12,19:01～20:00,0.125,0.110,0.118,
江戸川 (Edogawa),2012-07-12,18:01～19:00,0.124,0.108,0.118,
江戸川 (Edogawa),2012-07-12,17:01～18:00,0.126,0.110,0.118,
江戸川 (Edogawa),2012-07-12,16:01～17:00,0.124,0.112,0.119,
江戸川 (Edogawa),2012-07-12,15:01～16:00,0.127,0.112,0.120,
江戸川 (Edogawa),2012-07-12,14:01～15:00,0.128,0.113,0.120,
江戸川 (Edogawa),2012-07-12,13:01～14:00,0.128,0.114,0.121,
江戸川 (Edogawa),2012-07-12,12:01～13:00,0.129,0.112,0.121,
江戸川 (Edogawa),2012-07-12,11:01～12:00,0.133,0.115,0.122,
江戸川 (Edogawa),2012-07-12,10:01～11:00,0.125,0.115,0.121,
江戸川 (Edogawa),2012-07-12,09:01～10:00,0.125,0.112,0.119,
江戸川 (Edogawa),2012-07-12,08:01～09:00,0.124,0.111,0.118,
江戸川 (Edogawa),2012-07-12,07:01～08:00,0.125,0.105,0.118,
江戸川 (Edogawa),2012-07-12,06:01～07:00,0.124,0.111,0.118,
江戸川 (Edogawa),2012-07-12,05:01～06:00,0.127,0.112,0.119,
江戸川 (Edogawa),2012-07-12,04:01～05:00,0.124,0.111,0.118,
江戸川 (Edogawa),2012-07-12,03:01～04:00,0.123,0.112,0.118,
江戸川 (Edogawa),2012-07-12,02:01～03:00,0.125,0.109,0.119,
江戸川 (Edogawa),2012-07-12,01:01～02:00,0.124,0.111,0.117,
江戸川 (Edogawa),2012-07-12,00:01～01:00,0.124,0.112,0.119,
江戸川 (Edogawa),2012-07-11,23:01～24:00,0.127,0.112,0.119,
江戸川 (Edogawa),2012-07-11,22:01～23:00,0.125,0.112,0.119,
江戸川 (Edogawa),2012-07-11,21:01～22:00,0.125,0.112,0.119,
江戸川 (Edogawa),2012-07-11,20:01～21:00,0.128,0.113,0.118,
江戸川 (Edogawa),2012-07-11,19:01～20:00,0.127,0.112,0.118,
江戸川 (Edogawa),2012-07-11,18:01～19:00,0.125,0.112,0.118,
江戸川 (Edogawa),2012-07-11,17:01～18:00,0.125,0.111,0.118,
江戸川 (Edogawa),2012-07-11,16:01～17:00,0.126,0.111,0.119,
江戸川 (Edogawa),2012-07-11,15:01～16:00,0.126,0.112,0.119,
江戸川 (Edogawa),2012-07-11,14:01～15:00,0.126,0.113,0.119,
江戸川 (Edogawa),2012-07-11,13:01～14:00,0.123,0.112,0.119,
江戸川 (Edogawa),2012-07-11,12:01～13:00,0.127,0.110,0.119,
江戸川 (Edogawa),2012-07-11,11:01～12:00,0.128,0.108,0.118,
江戸川 (Edogawa),2012-07-11,10:01～11:00,0.124,0.110,0.118,
江戸川 (Edogawa),2012-07-11,09:01～10:00,0.124,0.108,0.117,
江戸川 (Edogawa),2012-07-11,08:01～09:00,0.125,0.111,0.118,
江戸川 (Edogawa),2012-07-11,07:01～08:00,0.124,0.112,0.119,
江戸川 (Edogawa),2012-07-11,06:01～07:00,0.125,0.110,0.118,
江戸川 (Edogawa),2012-07-11,05:01～06:00,0.124,0.109,0.117,
江戸川 (Edogawa),2012-07-11,04:01～05:00,0.123,0.111,0.117,
江戸川 (Edogawa),2012-07-11,03:01～04:00,0.124,0.110,0.118,
江戸川 (Edogawa),2012-07-11,02:01～03:00,0.126,0.111,0.118,
江戸川 (Edogawa),2012-07-11,01:01～02:00,0.127,0.111,0.118,
江戸川 (Edogawa),2012-07-11,00:01～01:00,0.126,0.110,0.117,
江戸川 (Edogawa),2012-07-10,23:01～24:00,0.127,0.113,0.118,
江戸川 (Edogawa),2012-07-10,22:01～23:00,0.124,0.111,0.118,
江戸川 (Edogawa),2012-07-10,21:01～22:00,0.125,0.109,0.118,
江戸川 (Edogawa),2012-07-10,20:01～21:00,0.122,0.110,0.117,
江戸川 (Edogawa),2012-07-10,19:01～20:00,0.125,0.111,0.118,
江戸川 (Edogawa),2012-07-10,18:01～19:00,0.125,0.111,0.118,
江戸川 (Edogawa),2012-07-10,17:01～18:00,0.124,0.113,0.118,
江戸川 (Edogawa),2012-07-10,16:01～17:00,0.126,0.111,0.118,
江戸川 (Edogawa),2012-07-10,15:01～16:00,0.125,0.110,0.118,
江戸川 (Edogawa),2012-07-10,14:01～15:00,0.123,0.113,0.118,
江戸川 (Edogawa),2012-07-10,13:01～14:00,0.124,0.111,0.118,
江戸川 (Edogawa),2012-07-10,12:01～13:00,0.123,0.112,0.118,
江戸川 (Edogawa),2012-07-10,11:01～12:00,0.126,0.107,0.117,
江戸川 (Edogawa),2012-07-10,10:01～11:00,0.123,0.110,0.117,
江戸川 (Edogawa),2012-07-10,09:01～10:00,0.124,0.111,0.117,
江戸川 (Edogawa),2012-07-10,08:01～09:00,0.126,0.109,0.117,
江戸川 (Edogawa),2012-07-10,07:01～08:00,0.125,0.110,0.117,
江戸川 (Edogawa),2012-07-10,06:01～07:00,0.124,0.111,0.117,
江戸川 (Edogawa),2012-07-10,05:01～06:00,0.122,0.111,0.117,
江戸川 (Edogawa),2012-07-10,04:01～05:00,0.122,0.109,0.117,
江戸川 (Edogawa),2012-07-10,03:01～04:00,0.124,0.111,0.117,
江戸川 (Edogawa),2012-07-10,02:01～03:00,0.122,0.110,0.117,
江戸川 (Edogawa),2012-07-10,01:01～02:00,0.126,0.111,0.117,
江戸川 (Edogawa),2012-07-10,00:01～01:00,0.121,0.111,0.116,
江戸川 (Edogawa),2012-07-09,23:01～24:00,0.123,0.110,0.118,
江戸川 (Edogawa),2012-07-09,22:01～23:00,0.124,0.111,0.117,
江戸川 (Edogawa),2012-07-09,21:01～22:00,0.122,0.109,0.117,
江戸川 (Edogawa),2012-07-09,20:01～21:00,0.124,0.110,0.117,
江戸川 (Edogawa),2012-07-09,19:01～20:00,0.124,0.110,0.117,
江戸川 (Edogawa),2012-07-09,18:01～19:00,0.123,0.111,0.116,
江戸川 (Edogawa),2012-07-09,17:01～18:00,0.124,0.111,0.117,
江戸川 (Edogawa),2012-07-09,16:01～17:00,0.126,0.109,0.117,
江戸川 (Edogawa),2012-07-09,15:01～16:00,0.125,0.109,0.117,
江戸川 (Edogawa),2012-07-09,14:01～15:00,0.123,0.106,0.117,
江戸川 (Edogawa),2012-07-09,13:01～14:00,0.124,0.109,0.116,
江戸川 (Edogawa),2012-07-09,12:01～13:00,0.122,0.110,0.116,
江戸川 (Edogawa),2012-07-09,11:01～12:00,0.124,0.108,0.116,
江戸川 (Edogawa),2012-07-09,10:01～11:00,0.121,0.108,0.116,
江戸川 (Edogawa),2012-07-09,09:01～10:00,0.120,0.109,0.115,
江戸川 (Edogawa),2012-07-09,08:01～09:00,0.124,0.107,0.116,
江戸川 (Edogawa),2012-07-09,07:01～08:00,0.122,0.111,0.115,
江戸川 (Edogawa),2012-07-09,06:01～07:00,0.122,0.107,0.116,
江戸川 (Edogawa),2012-07-09,05:01～06:00,0.121,0.109,0.115,
江戸川 (Edogawa),2012-07-09,04:01～05:00,0.123,0.108,0.115,
江戸川 (Edogawa),2012-07-09,03:01～04:00,0.121,0.109,0.115,
江戸川 (Edogawa),2012-07-09,02:01～03:00,0.123,0.109,0.116,
江戸川 (Edogawa),2012-07-09,01:01～02:00,0.123,0.109,0.115,
江戸川 (Edogawa),2012-07-09,00:01～01:00,0.121,0.108,0.115,
